Elizabeth City, NC

2:07 PM EDT on June 25, 2017 (GMT -0400)
Elizabeth City Cgas-Regional

Weather History for KECG - November, 2013

Change the Weather History Date:

Saturday, November 30, 2013

  Actual Average Record
Temperature  
Mean Temperature 45 °F 49 °F  
Max Temperature 53 °F 59 °F 76 °F (2006)
Min Temperature 36 °F 38 °F 22 °F (1961)
Degree Days  
Heating Degree Days 20 16  
Month to date heating degree days 429 364  
Since 1 July heating degree days 563 515  
Cooling Degree Days 0 0  
Month to date cooling degree days 8 7  
Year to date cooling degree days 1665 1588  
Moisture  
Dew Point 36 °F    
Average Humidity 74    
Maximum Humidity 89    
Minimum Humidity 59    
Precipitation  
Precipitation 0.00 in 0.09 in 1.50 in (1963)
Month to date precipitation 2.99 3.06  
Year to date precipitation 39.59 44.02  
Snow  
Snow 0.00 in - 0.80 in (1947)
Month to date snowfall 0.0  
Since 1 July snowfall 0.0  
Snow Depth 0.00 in    
Sea Level Pressure  
Sea Level Pressure 30.52 in    
Wind  
Wind Speed 12 mph (North)    
Max Wind Speed 17 mph    
Max Gust Speed 22 mph    
Visibility 10 miles    
Events      
T = Trace of Precipitation, MM = Missing Value Source: NWS Daily Summary

Daily Weather History Graph

Daily Weather History Graph

Search for Another Location

Airport or City:

Trip Planner

Search our weather history database for the weather conditions in past years. The results will help you decide how hot, cold, wet, or windy it might be!

Date:

Astronomy

Nov. 30, 2013 Rise Set
Actual Time 6:56 AM EST 4:50 PM EST
Civil Twilight 6:28 AM EST 5:18 PM EST
Nautical Twilight 5:56 AM EST 5:50 PM EST
Astronomical Twilight 5:25 AM EST 6:21 PM EST
Moon 4:09 AM EST (11/30) 3:09 PM EST (11/30)
Length of Visible Light 10h 49m
Length of Day
9h 53m
Waning Crescent, 7% of the Moon is Illuminated
Nov 30
Waning Crescent
Dec 2
New
Dec 9
First Quarter
Dec 17
Full
Dec 25
Last Quarter

Hourly Weather History & Observations

Time (EST) Temp. Windchill Dew Point Humidity Pressure Visibility Wind Dir Wind Speed Gust Speed Precip Events Conditions
12:54 AM 37.0 °F 28.5 °F 28.9 °F 73% 30.62 in 10.0 mi North 13.8 mph - N/A   Clear
1:54 AM 37.0 °F 27.7 °F 28.9 °F 73% 30.61 in 10.0 mi North 16.1 mph - N/A   Clear
2:54 AM 37.0 °F 28.5 °F 28.9 °F 73% 30.61 in 10.0 mi North 13.8 mph - N/A   Clear
3:54 AM 36.0 °F 28.0 °F 28.9 °F 76% 30.61 in 10.0 mi North 11.5 mph - N/A   Clear
4:54 AM 36.0 °F 27.1 °F 30.0 °F 79% 30.60 in 10.0 mi North 13.8 mph - N/A   Clear
5:54 AM 36.0 °F 28.0 °F 30.9 °F 82% 30.60 in 10.0 mi North 11.5 mph - N/A   Clear
6:54 AM 36.0 °F 27.5 °F 32.0 °F 86% 30.60 in 10.0 mi North 12.7 mph - N/A   Clear
7:54 AM 37.9 °F 29.6 °F 33.1 °F 83% 30.61 in 10.0 mi North 13.8 mph - N/A   Clear
8:54 AM 41.0 °F 35.2 °F 35.1 °F 79% 30.61 in 10.0 mi North 9.2 mph - N/A   Clear
9:54 AM 46.0 °F 41.0 °F 37.0 °F 71% 30.60 in 10.0 mi North 10.4 mph - N/A   Clear
10:54 AM 50.0 °F - 39.0 °F 66% 30.58 in 10.0 mi North 12.7 mph - N/A   Clear
11:54 AM 53.1 °F - 39.0 °F 59% 30.55 in 10.0 mi NNE 15.0 mph - N/A   Clear
12:54 PM 53.1 °F - 39.0 °F 59% 30.52 in 10.0 mi NE 12.7 mph - N/A   Clear
1:54 PM 52.0 °F - 39.9 °F 63% 30.50 in 10.0 mi NE 13.8 mph - N/A   Clear
2:54 PM 50.0 °F - 39.9 °F 68% 30.49 in 10.0 mi NNE 13.8 mph - N/A   Partly Cloudy
3:54 PM 50.0 °F - 39.9 °F 68% 30.48 in 10.0 mi NNE 11.5 mph - N/A   Clear
4:54 PM 46.9 °F - 41.0 °F 80% 30.46 in 10.0 mi NNE 10.4 mph - N/A   Clear
5:54 PM 45.0 °F 40.1 °F 39.0 °F 80% 30.45 in 10.0 mi NNW 9.2 mph - N/A   Clear
6:54 PM 43.0 °F 37.2 °F 37.9 °F 82% 30.43 in 10.0 mi North 10.4 mph - N/A   Clear
7:54 PM 42.1 °F 36.6 °F 37.9 °F 85% 30.42 in 10.0 mi NNW 9.2 mph - N/A   Clear
8:54 PM 41.0 °F 35.8 °F 37.9 °F 89% 30.40 in 10.0 mi NNW 8.1 mph - N/A   Clear
9:54 PM 41.0 °F 35.2 °F 37.9 °F 89% 30.39 in 10.0 mi NNW 9.2 mph - N/A   Partly Cloudy
10:54 PM 42.1 °F 36.1 °F 39.0 °F 89% 30.38 in 10.0 mi NNW 10.4 mph - N/A   Overcast
11:54 PM 42.1 °F 36.1 °F 39.0 °F 89% 30.35 in 10.0 mi North 10.4 mph - N/A   Mostly Cloudy